When you browse on this site, cookies collect data to enhance your experience and personalize the content and advertising you see.
Visit our Privacy Policy to learn more. By continuing to use the site, you agree to this use of cookies and data.

Hourly Weather Arnieres-sur-Iton

Today, 11 August, Tuesday

Time Temperature Precipitation Wind Pressure Humidity
00:00 +23°C° 0 mm 2 mps 747 mmHg 78%
01:00 +23°C° 0 mm 1 mps 747 mmHg 79%
02:00 +23°C° 0 mm 1 mps 747 mmHg 79%
03:00 +20°C° 0 mm 0 mps 747 mmHg 80%
04:00 +21°C° 0.1 mm 0 mps 747 mmHg 79%
05:00 +21°C° 0.1 mm 0 mps 747 mmHg 77%
06:00 +22°C° 0.1 mm 0 mps 747 mmHg 75%
07:00 +24°C° 0 mm 0 mps 747 mmHg 68%
08:00 +28°C° 0 mm 1 mps 748 mmHg 60%
09:00 +30°C° 0 mm 1 mps 748 mmHg 52%
10:00 +32°C° 0 mm 1 mps 748 mmHg 47%
11:00 +33°C° 0 mm 1 mps 748 mmHg 42%
12:00 +35°C° 0 mm 1 mps 748 mmHg 37%
13:00 +35°C° 0 mm 1 mps 747 mmHg 35%
14:00 +36°C° 0 mm 1 mps 747 mmHg 33%
15:00 +36°C° 0 mm 1 mps 747 mmHg 32%
16:00 +36°C° 0.2 mm 2 mps 746 mmHg 37%
17:00 +34°C° 0.2 mm 3 mps 746 mmHg 42%
18:00 +31°C° 0.2 mm 3 mps 746 mmHg 47%
19:00 +29°C° 1 mm 3 mps 746 mmHg 56%
20:00 +27°C° 1 mm 2 mps 746 mmHg 64%
21:00 +24°C° 1 mm 2 mps 746 mmHg 72%
22:00 +24°C° 0.5 mm 2 mps 746 mmHg 75%
23:00 +24°C° 0.5 mm 2 mps 746 mmHg 77%

Tomorrow, 12 August, Wednesday

Time Temperature Precipitation Wind Pressure Humidity
00:00 +23°C° 0.5 mm 2 mps 746 mmHg 80%
01:00 +23°C° 0.4 mm 2 mps 746 mmHg 79%
02:00 +23°C° 0.4 mm 1 mps 746 mmHg 79%
03:00 +23°C° 0.4 mm 1 mps 746 mmHg 79%
04:00 +23°C° 0 mm 1 mps 746 mmHg 78%
05:00 +24°C° 0 mm 1 mps 746 mmHg 77%
06:00 +24°C° 0 mm 1 mps 745 mmHg 76%
07:00 +26°C° 0 mm 1 mps 746 mmHg 70%
08:00 +28°C° 0 mm 1 mps 746 mmHg 63%
09:00 +30°C° 0 mm 1 mps 746 mmHg 56%
10:00 +31°C° 0 mm 2 mps 746 mmHg 51%
11:00 +34°C° 0 mm 2 mps 746 mmHg 46%
12:00 +35°C° 0 mm 2 mps 746 mmHg 40%
13:00 +34°C° 0.1 mm 3 mps 746 mmHg 44%
14:00 +33°C° 0.1 mm 3 mps 745 mmHg 48%
15:00 +32°C° 0.1 mm 4 mps 745 mmHg 52%
16:00 +29°C° 1.2 mm 4 mps 745 mmHg 62%
17:00 +27°C° 1.2 mm 4 mps 745 mmHg 72%
18:00 +25°C° 1.2 mm 4 mps 744 mmHg 81%
19:00 +23°C° 0.8 mm 4 mps 745 mmHg 85%
20:00 +22°C° 0.8 mm 3 mps 745 mmHg 90%
21:00 +21°C° 0.8 mm 3 mps 745 mmHg 94%
22:00 +20°C° 0.1 mm 2 mps 745 mmHg 94%
23:00 +21°C° 0.1 mm 1 mps 745 mmHg 95%

Day after tomorrow, 13 August, Thursday

Time Temperature Precipitation Wind Pressure Humidity
00:00 +21°C° 0.1 mm 1 mps 745 mmHg 95%
01:00 +21°C° 0.5 mm 1 mps 745 mmHg 95%
02:00 +21°C° 0.5 mm 1 mps 745 mmHg 96%
03:00 +21°C° 0.5 mm 1 mps 745 mmHg 96%
04:00 +20°C° 0.4 mm 2 mps 745 mmHg 94%
05:00 +20°C° 0.4 mm 3 mps 745 mmHg 93%
06:00 +20°C° 0.4 mm 4 mps 745 mmHg 91%
07:00 +20°C° 0 mm 4 mps 745 mmHg 86%
08:00 +21°C° 0 mm 5 mps 745 mmHg 82%
09:00 +22°C° 0 mm 5 mps 746 mmHg 78%
10:00 +22°C° 0 mm 5 mps 746 mmHg 75%
11:00 +23°C° 0 mm 5 mps 746 mmHg 73%
12:00 +23°C° 0 mm 5 mps 745 mmHg 70%
13:00 +25°C° 0.4 mm 5 mps 745 mmHg 70%
14:00 +25°C° 0.4 mm 5 mps 745 mmHg 69%
15:00 +26°C° 0.4 mm 5 mps 745 mmHg 69%
16:00 +25°C° 0.6 mm 5 mps 745 mmHg 72%
17:00 +25°C° 0.6 mm 4 mps 745 mmHg 75%
18:00 +24°C° 0.6 mm 3 mps 745 mmHg 78%
19:00 +22°C° 0.4 mm 3 mps 745 mmHg 82%
20:00 +21°C° 0.4 mm 3 mps 745 mmHg 87%
21:00 +20°C° 0.4 mm 3 mps 746 mmHg 92%
22:00 +20°C° 0 mm 3 mps 746 mmHg 92%
23:00 +19°C° 0 mm 4 mps 746 mmHg 93%

14 August, Friday

Time Temperature Precipitation Wind Pressure Humidity
00:00 +19°C° 0 mm 4 mps 746 mmHg 93%
01:00 +19°C° 0 mm 4 mps 746 mmHg 93%
02:00 +19°C° 0 mm 4 mps 746 mmHg 93%
03:00 +18°C° 0 mm 3 mps 747 mmHg 93%
04:00 +18°C° 0 mm 3 mps 747 mmHg 91%
05:00 +18°C° 0 mm 4 mps 747 mmHg 90%
06:00 +19°C° 0 mm 4 mps 747 mmHg 88%
07:00 +19°C° 0 mm 4 mps 748 mmHg 84%
08:00 +20°C° 0 mm 4 mps 748 mmHg 80%
09:00 +20°C° 0 mm 4 mps 748 mmHg 76%
10:00 +21°C° 0 mm 4 mps 748 mmHg 73%
11:00 +22°C° 0 mm 3 mps 749 mmHg 69%
12:00 +24°C° 0 mm 3 mps 749 mmHg 66%
13:00 +24°C° 0 mm 3 mps 749 mmHg 64%
14:00 +25°C° 0 mm 3 mps 748 mmHg 62%
15:00 +25°C° 0 mm 3 mps 748 mmHg 61%
16:00 +25°C° 0 mm 3 mps 748 mmHg 63%
17:00 +24°C° 0 mm 2 mps 748 mmHg 65%
18:00 +24°C° 0 mm 2 mps 748 mmHg 66%
19:00 +21°C° 0 mm 2 mps 749 mmHg 72%
20:00 +20°C° 0 mm 2 mps 749 mmHg 77%
21:00 +18°C° 0 mm 2 mps 749 mmHg 82%
22:00 +17°C° 0 mm 2 mps 749 mmHg 84%
23:00 +18°C° 0 mm 1 mps 749 mmHg 86%

15 August, Saturday

Time Temperature Precipitation Wind Pressure Humidity
00:00 +16°C° 0 mm 1 mps 749 mmHg 88%
01:00 +16°C° 0 mm 1 mps 748 mmHg 89%
02:00 +15°C° 0 mm 1 mps 748 mmHg 89%
03:00 +15°C° 0 mm 1 mps 748 mmHg 90%
04:00 +15°C° 0 mm 1 mps 748 mmHg 88%
05:00 +16°C° 0 mm 1 mps 748 mmHg 86%
06:00 +16°C° 0 mm 1 mps 748 mmHg 85%
07:00 +19°C° 0 mm 1 mps 748 mmHg 76%
08:00 +19°C° 0 mm 0 mps 748 mmHg 68%
09:00 +21°C° 0 mm 0 mps 748 mmHg 59%
10:00 +23°C° 0 mm 0 mps 748 mmHg 54%
11:00 +24°C° 0 mm 0 mps 748 mmHg 49%
12:00 +26°C° 0 mm 0 mps 748 mmHg 43%
13:00 +28°C° 0 mm 1 mps 748 mmHg 41%
14:00 +29°C° 0 mm 1 mps 747 mmHg 38%
15:00 +29°C° 0 mm 1 mps 747 mmHg 35%
16:00 +28°C° 0 mm 1 mps 746 mmHg 39%
17:00 +27°C° 0 mm 2 mps 746 mmHg 43%
18:00 +26°C° 0 mm 2 mps 746 mmHg 47%
19:00 +24°C° 0 mm 2 mps 746 mmHg 55%
20:00 +21°C° 0 mm 3 mps 746 mmHg 63%
21:00 +19°C° 0 mm 3 mps 746 mmHg 71%
22:00 +19°C° 0 mm 3 mps 746 mmHg 73%
23:00 +19°C° 0 mm 3 mps 746 mmHg 75%

16 August, Sunday

Time Temperature Precipitation Wind Pressure Humidity
00:00 +18°C° 0 mm 2 mps 746 mmHg 76%
01:00 +18°C° 0.1 mm 2 mps 745 mmHg 77%
02:00 +18°C° 0.1 mm 2 mps 745 mmHg 77%
03:00 +18°C° 0.1 mm 2 mps 745 mmHg 78%
04:00 +18°C° 0 mm 2 mps 745 mmHg 79%
05:00 +18°C° 0 mm 2 mps 745 mmHg 80%
06:00 +19°C° 0 mm 2 mps 745 mmHg 81%
07:00 +20°C° 0 mm 3 mps 745 mmHg 74%
08:00 +22°C° 0 mm 4 mps 745 mmHg 67%
09:00 +23°C° 0 mm 5 mps 745 mmHg 61%
10:00 +25°C° 0 mm 5 mps 745 mmHg 55%
11:00 +26°C° 0 mm 5 mps 746 mmHg 50%
12:00 +27°C° 0 mm 5 mps 746 mmHg 45%
13:00 +27°C° 0 mm 5 mps 746 mmHg 44%
14:00 +27°C° 0 mm 5 mps 746 mmHg 43%
15:00 +27°C° 0 mm 5 mps 746 mmHg 41%
16:00 +27°C° 0 mm 4 mps 746 mmHg 45%
17:00 +26°C° 0 mm 3 mps 746 mmHg 48%
18:00 +25°C° 0 mm 2 mps 746 mmHg 51%
19:00 +23°C° 0 mm 2 mps 746 mmHg 57%
20:00 +21°C° 0 mm 2 mps 746 mmHg 64%
21:00 +19°C° 0 mm 2 mps 746 mmHg 70%
22:00 +18°C° 0 mm 2 mps 746 mmHg 73%
23:00 +18°C° 0 mm 2 mps 746 mmHg 76%
Show more